Torna al catalogo

DELTA 1 DEB

AttivoSSO
NORAD 7041·DEBRIS·🇺🇸 United States

Lanciato Nov 6, 1973 da Vandenberg Space Force Base

Loading…

Prossimi Passaggi (prossime 24 ore)

TLE

AggiornatoSource: Space-Track

Epoca: Sep 14, 2026, 12:44 UTC

1 07041U 73086AH  26257.53063047  .00000324  00000-0  26451-2 0  9995
2 07041 101.5488 276.0400 0187344  50.7433 102.5629 12.37981866365650

Traccia DELTA 1 DEB in tempo reale con AllMySat

Download on the App Store